Location: Hysolar-Haus
(48.7436°N, 9.0965°E)
Time: 18:37:40
(UTC+00:00)

Daily predictions for brighter satellites

Satellite Brightness Start Highest point End
(mag) Time Altitude Azimuth Time Altitude Azimuth Time Altitude Azimuth
SL-8 Rocket 4.1 16:50:57 10° SSE 16:56:58 56° E 17:03:03 10° NNE
Aureole 1 Rocket 4.0 16:53:32 10° S 16:59:42 47° ESE 17:04:26 10° NE
Cosmos 2322 4.2 16:54:33 10° NNW 16:59:59 41° NE 17:05:22 10° ESE
Cosmos 1315 Rocket 4.0 16:57:08 10° NNE 17:00:25 23° ENE 17:03:41 10° ESE
USA 116 4.4 16:57:45 10° NNE 17:02:46 67° ESE 17:08:03 10° S
MONITOR-E 4.5 17:01:36 10° SE 17:04:32 43° ENE 17:07:30 10° N
Cosmos 1626 2.5 17:01:31 10° N 17:05:08 43° ENE 17:08:42 10° SSE
Meteor 1-16 Rocket 4.1 17:02:10 10° S 17:07:22 61° E 17:12:40 10° NNE
Cosmos 1833 Rocket 4.3 17:02:41 10° WSW 17:07:44 33° NW 17:12:48 10° NNE
Resurs 01 Rocket 3.6 17:07:15 10° ENE 17:07:46 10° NE 17:08:17 10° NE
Cosmos 2221 4.0 17:05:33 10° ESE 17:08:08 16° E 17:10:43 10° NE
Cosmos 1500 Rocket 3.9 17:05:46 10° N 17:09:56 41° ENE 17:14:02 10° SE
Gbstr 26 Del rocket 3.6 17:05:38 10° WNW 17:10:16 65° N 17:16:05 10° E
Cosmos 1624 Rocket 4.2 17:05:16 10° NNW 17:10:30 81° WSW 17:15:44 10° SSE
deb Kosmos-1763 4.2 17:07:20 10° S 17:11:06 57° ESE 17:14:53 10° NNE
Meteor 2-15 Rocket 4.5 17:05:41 10° N 17:11:49 87° E 17:17:56 10° S
FENGYUN 3A 4.0 17:07:08 10° SE 17:12:14 45° ENE 17:17:22 10° N
Cosmos 921 Rocket 3.7 17:09:27 10° N 17:13:37 35° ENE 17:17:41 10° SE
Abrixas rocket 2.9 17:10:32 10° SW 17:13:40 41° SSE 17:16:32 12° E
Cosmos 2058 3.2 17:11:47 10° N 17:15:52 46° ENE 17:19:53 10° SSE
RESURS DK-1 2.6 17:12:49 10° NNW 17:16:52 49° NE 17:20:53 10° SE
Cosmos 2218 Rocket 3.9 17:12:17 10° S 17:18:22 67° E 17:24:28 10° NNE
Cosmos 1461 2.8 17:14:27 10° SSW 17:18:29 75° SE 17:22:45 10° NE
Meteor 2-21 4.5 17:12:32 10° S 17:18:37 89° WNW 17:24:42 10° N
Cosmos 1470 4.4 17:16:14 10° SW 17:19:59 39° WNW 17:23:46 10° N
EO 1 Del DPAF 3.2 17:16:17 10° NNE 17:20:07 62° ESE 17:23:56 10° S
Cosmos 1420 Rocket 4.5 17:15:21 10° NNW 17:20:25 41° ENE 17:25:25 10° SE
SMAP 4.4 17:16:21 10° S 17:20:47 44° W 17:25:17 10° NNW
Cosmos 1680 Rocket 4.3 17:16:33 10° SW 17:21:44 57° WNW 17:26:56 10° NNE
Cosmos 2219 Rocket 3.3 17:18:04 10° NNW 17:22:43 26° NE 17:26:47 12° E
Cosmos 1727 Rocket 4.0 17:18:58 10° N 17:25:21 71° E 17:31:40 10° SSE
Aureole 2 Rocket 4.4 17:23:23 10° NNE 17:25:45 16° NE 17:27:01 14° ENE
Lacrosse 5 rocket 2.1 17:21:31 10° WSW 17:25:55 51° NNW 17:30:06 10° NE
Cosmos 1339 Rocket 4.5 17:20:30 10° N 17:26:55 74° E 17:33:11 10° SSE
MOS 1 4.4 17:22:23 10° SSE 17:28:03 84° WSW 17:33:48 10° NNW
Lacrosse 4 Rocket 4.2 17:28:31 10° NW 17:29:52 11° NNW 17:31:12 10° N
SJ-6B 3.8 17:27:37 10° ESE 17:30:37 24° ENE 17:33:39 10° NNE
Envisat 4.5 17:28:26 14° E 17:30:38 18° ENE 17:33:55 10° NNE
COSMO-SKYMED 1 2.5 17:26:28 10° NNE 17:30:49 66° ESE 17:35:07 10° S
SL-16 R/B 3.4 17:28:13 10° NW 17:33:38 47° WSW 17:39:01 10° S
Cosmos 2237 4.3 17:30:46 10° NNW 17:36:28 60° ENE 17:42:07 10° SE
Cosmos 1703 3.3 17:39:26 10° N 17:43:25 87° W 17:47:20 10° S
Sich 1 4.2 17:40:26 10° NNE 17:43:57 23° ENE 17:45:18 20° E
CZ-4C R/B 3.6 17:42:35 10° SE 17:45:10 16° ESE 17:45:10 16° ESE
BREEZE-M DEB (TANK) 4.0 17:45:13 10° WSW 17:46:04 12° SW 17:46:52 10° SSW
USA 267 4.3 17:43:32 17° E 17:46:55 25° SE 17:52:06 10° S
Cosmos 1805 Rocket 4.1 17:44:04 10° N 17:48:07 36° ENE 17:51:49 12° SE
SL-08 R/B 4.5 17:42:26 10° S 17:48:37 88° W 17:54:47 10° N
Cosmos 2237 Rocket 3.4 17:47:13 10° N 17:51:54 25° NE 17:54:04 20° ENE
FREGAT/IRIS 2.6 17:51:31 14° SSE 17:53:52 52° ENE 17:56:48 10° N
CZ-4 R/B 4.2 17:51:24 10° SSW 17:54:47 23° W 17:58:10 10° NW
SPOT 3 Rocket 4.2 17:50:01 10° S 17:55:08 60° WSW 18:00:19 10° NNW
Cosmos 1400 Rocket 3.7 17:51:18 10° NNW 17:55:17 52° W 17:59:10 10° S
Aureole 2 4.0 17:53:06 10° NNW 17:56:05 80° ENE 17:58:38 15° SSE
Cosmos 1666 Rocket 4.4 17:52:44 10° N 17:56:35 29° ENE 17:57:34 26° E
DMSP B5D1-3 4.4 17:53:55 10° NNE 17:59:04 75° ESE 18:04:11 10° S
SL-16 R/B 3.9 17:56:35 10° N 18:00:06 16° NE 18:01:32 15° NE
GP-B 4.2 17:59:43 10° N 18:04:00 47° W 18:08:15 10° SSW
MOS 1-B Rocket 4.2 18:00:15 17° SE 18:04:21 43° ENE 18:10:06 10° N
Cosmos 1633 Rocket 3.8 18:02:11 10° N 18:06:07 30° ENE 18:06:23 30° ENE
Cosmos 1908 3.1 18:03:28 10° S 18:07:22 70° E 18:11:17 10° NNE
Cosmos 2098 Rocket 3.5 18:05:47 10° SSE 18:10:00 48° E 18:15:23 10° NNE
COSMOS 2428 2.6 18:06:54 10° NNW 18:12:38 76° ENE 18:16:59 18° SE
H-2A R/B 2.7 18:11:11 10° SSE 18:15:04 88° ENE 18:19:01 10° NNW
Cosmos 1980 4.4 18:10:00 10° NNW 18:15:10 35° NE 18:16:36 31° E
ALOS 3.1 18:10:59 10° S 18:15:31 52° W 18:20:08 10° NNW
Cosmos 1452 Rocket 4.1 18:10:47 10° NNW 18:15:57 59° WSW 18:21:06 10° S
Cosmos 2333 Rocket 2.5 18:10:33 10° NNW 18:16:06 47° NE 18:18:19 32° ESE
Cosmos 2360 Rocket 3.0 18:11:27 10° NW 18:16:55 51° WSW 18:22:22 10° S
GENESIS II 4.3 18:13:06 10° SSW 18:16:58 52° ESE 18:17:33 47° E
HJ-1C 3.2 18:20:21 46° SSE 18:21:16 80° ENE 18:24:43 10° N
Cosmos 1833 4.2 18:16:58 10° SSW 18:22:41 85° WNW 18:28:22 10° NNE
USA 234 3.5 18:21:35 30° E 18:24:52 58° NNE 18:31:18 10° NW
Cosmos 2219 3.5 18:21:50 10° S 18:27:10 41° ESE 18:28:24 36° ENE
FengYun 1-2 T 4.3 18:22:44 10° S 18:28:14 76° WSW 18:33:45 10° NNW
CZ-2D R/B 3.2 18:30:37 64° ENE 18:30:37 64° ENE 18:34:28 10° N
Cosmos 1535 Rocket 4.3 18:27:11 10° S 18:33:16 69° E 18:39:20 10° NNE
Spot 2 Rocket 3.6 18:33:41 47° E 18:34:26 51° ENE 18:39:22 10° N
Cosmos 1315 Rocket 4.5 18:33:22 10° NNW 18:37:06 35° W 18:40:50 10° SSW
ATLAS 5 CENTAUR R/B 4.1 18:34:15 10° NW 18:37:47 18° N 18:40:24 13° NNE
Cosmos 1110 Rocket 4.1 18:32:46 10° NNW 18:38:02 56° ENE 18:38:48 51° E
Resurs 01 Rocket 1.5 18:43:26 68° ENE 18:43:26 68° ENE 18:47:49 10° N
Cosmos 2221 3.1 18:40:58 10° SSW 18:45:13 58° WNW 18:49:32 10° N
Abrixas rocket 3.5 18:46:51 10° W 18:49:04 39° W 18:49:04 39° W
NOSS 0 Rocket 3.8 18:45:02 10° NNW 18:51:15 75° ENE 18:52:48 52° SE
Atlas Centaur 2 4.5 18:51:35 10° SSW 18:52:46 11° S 18:53:26 10° S
Thor Agena Rocket 4.1 18:51:01 10° N 18:56:02 56° WNW 19:00:58 10° SW
Gbstr 26 Del rocket 3.8 18:52:19 10° WNW 18:57:29 68° SSW 18:58:40 54° SSE
Resurs 1-3 3.7 19:00:03 72° NNW 19:00:03 72° NNW 19:04:01 10° NNW
Geosat 4.3 19:00:45 51° NNE 19:00:45 51° NNE 19:05:08 10° NNW
Cosmos 1048 Rocket 3.9 18:55:20 10° SSW 19:00:29 84° WNW 19:03:43 23° NNE
Aureole 2 Rocket 3.4 18:57:22 10° NNW 19:00:28 52° WNW 19:00:28 52° WNW
Cosmos 1821 Rocket 4.3 18:58:51 10° SSW 19:04:58 66° WNW 19:11:13 10° N
SJ-6B 4.5 19:03:18 20° SW 19:05:11 31° W 19:08:32 10° NNW
Lacrosse 5 rocket 3.0 19:02:08 10° WNW 19:05:51 27° N 19:05:56 27° N
Cosmos 2219 Rocket 2.3 19:01:37 10° NNW 19:07:12 70° WSW 19:08:32 51° S
Envisat 2.9 19:08:39 75° SSW 19:09:02 82° WSW 19:14:10 10° NNW
Cosmos 1934 Rocket 4.1 19:06:31 10° SSW 19:12:52 75° W 19:19:18 10° N
Sich 1 4.3 19:17:44 10° NNW 19:21:48 39° W 19:22:19 38° WSW
USA 267 3.1 19:30:55 75° SSE 19:30:55 75° SSE 19:37:11 10° SW
Meteor 2-3 Rocket 4.0 19:26:26 10° NNW 19:31:15 63° N 19:31:15 63° N
CZ-4C R/B 3.3 19:27:46 10° SW 19:30:27 32° SW 19:30:27 32° SW
Cosmos 2237 Rocket 2.5 19:30:51 10° NNW 19:35:54 66° WNW 19:35:54 66° WNW
Cosmos 1605 Rocket 4.1 19:37:27 49° SW 19:39:03 69° WNW 19:45:09 10° N
SL-16 R/B 3.2 19:39:46 10° NNW 19:43:24 39° N 19:43:24 39° N
Cosmos 2333 Rocket 3.5 19:55:07 10° NW 20:00:13 34° WSW 20:00:21 34° WSW
H-2A R/B 4.2 20:06:43 19° N 20:06:43 19° N 20:08:11 10° N
USA 234 3.7 20:08:57 57° W 20:08:57 57° W 20:14:25 10° WNW
Cosmos 2219 4.5 20:05:59 10° WSW 20:10:29 38° WNW 20:10:29 38° WNW
Resurs 01 Rocket 4.4 20:21:01 14° W 20:21:01 14° W 20:22:52 10° NW
ATLAS 5 CENTAUR R/B 4.2 20:19:31 10° NNW 20:21:55 21° N 20:21:55 21° N
